EZY34Y EGKK-LGZA

Flight info

Callsign EZY34Y
Flight time N/A
Altitude 35000
Route ODVIK Y311 DVR UL9 KONAN DCT KOK DCT SISGA DCT RITAX DCT KRH DCT UTABA DCT BEMKI/N0435F370 DCT ELMEM DCT DIRAB DCT VESAL DCT VAKSU DCT RODON DCT LIMJA DCT PITAS/N0421F330 UN732 KRK UT321 ASTUS
Aircraft A320/M-SDE2E3FGHIJ1RWXYZ/LB1

Departure

Time N/A
Airport London Gatwick Airport (EGKK)

Arrival

Time 2026-04-25 14:24
Airport Zakynthos International Airport Dionysios Solomos (LGZA)
Time Latitude Longitude Altitude Speed Heading
2026-04-25 13:39 34.76846 20.05606 17885 ft 417 kts 334°
2026-04-25 13:39 34.79440 20.03992 16525 ft 408 kts 334°
2026-04-25 13:40 34.81949 20.02448 15254 ft 401 kts 334°
2026-04-25 13:40 34.84418 20.00937 14044 ft 394 kts 334°
2026-04-25 13:40 34.86815 19.99476 12749 ft 387 kts 334°
2026-04-25 13:40 34.89200 19.98028 11466 ft 380 kts 334°
2026-04-25 13:41 34.91579 19.96587 10216 ft 373 kts 334°
2026-04-25 13:41 34.93880 19.95293 9034 ft 364 kts 343°
2026-04-25 13:41 34.96244 19.94787 8895 ft 327 kts 358°
2026-04-25 13:41 34.98396 19.94835 8866 ft 294 kts
2026-04-25 13:42 35.00370 19.94914 8842 ft 281 kts
2026-04-25 13:42 35.02330 19.94997 8814 ft 282 kts
2026-04-25 13:42 35.04291 19.95089 8786 ft 282 kts
2026-04-25 13:42 35.06250 19.95188 8768 ft 282 kts
2026-04-25 13:43 35.08219 19.95295 8738 ft 282 kts
2026-04-25 13:43 35.10174 19.95403 8713 ft 282 kts
2026-04-25 13:43 35.12134 19.95512 8686 ft 282 kts
2026-04-25 13:43 35.14095 19.95616 8632 ft 282 kts
2026-04-25 13:44 35.16053 19.95718 8593 ft 282 kts
2026-04-25 13:44 35.18010 19.95822 8535 ft 281 kts
2026-04-25 13:44 35.19964 19.95925 8493 ft 281 kts
2026-04-25 13:44 35.21919 19.96029 8440 ft 281 kts
2026-04-25 13:45 35.23876 19.96135 8395 ft 281 kts
2026-04-25 13:45 35.25826 19.96237 8337 ft 281 kts
2026-04-25 13:45 35.27777 19.96341 8286 ft 280 kts
2026-04-25 13:45 35.29723 19.96443 8231 ft 280 kts
2026-04-25 13:46 35.31644 19.96543 8108 ft 280 kts
2026-04-25 13:46 35.33611 19.96650 8036 ft 279 kts
2026-04-25 13:46 35.35524 19.96753 8043 ft 279 kts
2026-04-25 13:46 35.37466 19.96854 8042 ft 279 kts
2026-04-25 13:47 35.39404 19.96958 8047 ft 280 kts
2026-04-25 13:47 35.41344 19.97062 8047 ft 279 kts
2026-04-25 13:47 35.43290 19.97168 8044 ft 280 kts
2026-04-25 13:47 35.45248 19.97273 8049 ft 291 kts
2026-04-25 13:48 35.47378 19.97384 8044 ft 322 kts
2026-04-25 13:48 35.49714 19.97507 8046 ft 348 kts
2026-04-25 13:48 35.52218 19.97642 8037 ft 366 kts
2026-04-25 13:48 35.54765 19.97780 8041 ft 367 kts
2026-04-25 13:49 35.57323 19.97919 8047 ft 367 kts
2026-04-25 13:49 35.59836 19.98058 8042 ft 367 kts
2026-04-25 13:49 35.62349 19.98198 8042 ft 367 kts
2026-04-25 13:49 35.64903 19.98333 8040 ft 367 kts
2026-04-25 13:50 35.67453 19.98469 8044 ft 367 kts
2026-04-25 13:50 35.69946 19.98605 8039 ft 347 kts
2026-04-25 13:50 35.72279 19.98730 8039 ft 324 kts
2026-04-25 13:50 35.74462 19.98845 8045 ft 304 kts
2026-04-25 13:51 35.76513 19.98956 8037 ft 286 kts
2026-04-25 13:51 35.78469 19.99065 8039 ft 280 kts
2026-04-25 13:51 35.80412 19.99172 8044 ft 280 kts
2026-04-25 13:51 35.82364 19.99276 8037 ft 280 kts
2026-04-25 13:52 35.84313 19.99378 8040 ft 280 kts
2026-04-25 13:52 35.86261 19.99480 8038 ft 280 kts
2026-04-25 13:52 35.88207 19.99582 8033 ft 281 kts
2026-04-25 13:52 35.90160 19.99687 8031 ft 280 kts
2026-04-25 13:53 35.92102 19.99794 8039 ft 280 kts
2026-04-25 13:53 35.94032 19.99901 8036 ft 280 kts
2026-04-25 13:53 35.95975 20.00008 8035 ft 280 kts
2026-04-25 13:53 35.97927 20.00116 8039 ft 281 kts
2026-04-25 13:54 35.99883 20.00220 8034 ft 280 kts
2026-04-25 13:54 36.01829 20.00321 8037 ft 281 kts
2026-04-25 13:54 36.03784 20.00427 8035 ft 281 kts
2026-04-25 13:54 36.05738 20.00536 8037 ft 281 kts
2026-04-25 13:55 36.07686 20.00645 8034 ft 280 kts
2026-04-25 13:55 36.09636 20.00748 8045 ft 281 kts
2026-04-25 13:55 36.11586 20.00852 8042 ft 281 kts
2026-04-25 13:55 36.13534 20.00959 8033 ft 280 kts
2026-04-25 13:56 36.15481 20.01063 8038 ft 281 kts
2026-04-25 13:56 36.17436 20.01169 8037 ft 280 kts
2026-04-25 13:56 36.19381 20.01274 8039 ft 280 kts
2026-04-25 13:56 36.21310 20.01378 7982 ft 271 kts
2026-04-25 13:57 36.23179 20.01480 7859 ft 268 kts
2026-04-25 13:57 36.23808 20.01516 7821 ft 268 kts
2026-04-25 13:57 36.26904 20.01689 7827 ft 268 kts
2026-04-25 13:57 36.28773 20.01794 7830 ft 268 kts
2026-04-25 13:58 36.30642 20.01896 7821 ft 269 kts
2026-04-25 13:58 36.32485 20.01996 7824 ft 269 kts
2026-04-25 13:58 36.34357 20.02100 7822 ft 269 kts
2026-04-25 13:58 36.36227 20.02214 7829 ft 269 kts
2026-04-25 13:59 36.38083 20.02626 7830 ft 268 kts 21°
2026-04-25 13:59 36.39785 20.03559 7826 ft 269 kts 25°
2026-04-25 13:59 36.41451 20.04550 7825 ft 269 kts 26°
2026-04-25 13:59 36.43131 20.05559 7828 ft 268 kts 26°
2026-04-25 14:00 36.44813 20.06571 7826 ft 269 kts 26°
2026-04-25 14:00 36.46496 20.07582 7815 ft 269 kts 26°
2026-04-25 14:00 36.48179 20.08607 7825 ft 269 kts 26°
2026-04-25 14:00 36.49848 20.09648 7818 ft 269 kts 27°
2026-04-25 14:01 36.51519 20.10698 7828 ft 269 kts 27°
2026-04-25 14:01 36.53185 20.11745 7813 ft 269 kts 27°
2026-04-25 14:01 36.54854 20.12795 7826 ft 269 kts 27°
2026-04-25 14:01 36.56523 20.13845 7826 ft 268 kts 27°
2026-04-25 14:02 36.58189 20.14892 7815 ft 269 kts 27°
2026-04-25 14:02 36.59858 20.15940 7825 ft 269 kts 27°
2026-04-25 14:02 36.61528 20.16989 7825 ft 269 kts 27°
2026-04-25 14:02 36.62089 20.17341 7809 ft 269 kts 27°
2026-04-25 14:03 36.64867 20.19084 7816 ft 269 kts 27°
2026-04-25 14:03 36.66536 20.20134 7828 ft 269 kts 27°
2026-04-25 14:03 36.68207 20.21186 7819 ft 269 kts 27°
2026-04-25 14:03 36.69880 20.22240 7816 ft 269 kts 27°
2026-04-25 14:04 36.71549 20.23289 7812 ft 269 kts 27°
2026-04-25 14:04 36.73225 20.24345 7818 ft 269 kts 27°
2026-04-25 14:04 36.74894 20.25401 7809 ft 269 kts 27°
2026-04-25 14:04 36.76561 20.26455 7809 ft 269 kts 27°
2026-04-25 14:05 36.78236 20.27510 7808 ft 269 kts 27°
2026-04-25 14:05 36.79904 20.28560 7804 ft 269 kts 27°
2026-04-25 14:05 36.81581 20.29616 7813 ft 269 kts 27°
2026-04-25 14:05 36.82686 20.30313 7817 ft 269 kts 27°
2026-04-25 14:06 36.84355 20.31366 7816 ft 269 kts 27°
2026-04-25 14:06 36.86568 20.32765 7808 ft 269 kts 27°
2026-04-25 14:06 36.88234 20.33823 7806 ft 269 kts 27°
2026-04-25 14:06 36.89903 20.34883 7806 ft 269 kts 27°
2026-04-25 14:07 36.91030 20.35598 7812 ft 270 kts 27°
2026-04-25 14:07 36.92702 20.36657 7809 ft 269 kts 27°
2026-04-25 14:07 36.94915 20.38062 7810 ft 269 kts 27°
2026-04-25 14:07 36.96043 20.38779 7806 ft 269 kts 27°
2026-04-25 14:08 36.97692 20.39825 7805 ft 269 kts 27°
2026-04-25 14:08 36.99361 20.40885 7808 ft 269 kts 27°
2026-04-25 14:08 37.01055 20.41960 7814 ft 269 kts 27°
2026-04-25 14:08 37.02704 20.43005 7728 ft 269 kts 27°
2026-04-25 14:09 37.04370 20.44064 7603 ft 268 kts 27°
2026-04-25 14:09 37.06034 20.45124 7472 ft 268 kts 27°
2026-04-25 14:09 37.07700 20.46183 7347 ft 268 kts 27°
2026-04-25 14:09 37.08804 20.46882 7268 ft 268 kts 27°
2026-04-25 14:10 37.11020 20.48285 7103 ft 267 kts 27°
2026-04-25 14:10 37.12679 20.49341 6981 ft 267 kts 28°
2026-04-25 14:10 37.14334 20.50398 6857 ft 267 kts 27°
2026-04-25 14:10 37.15984 20.51452 6737 ft 266 kts 27°
2026-04-25 14:11 37.17632 20.52505 6616 ft 266 kts 28°
2026-04-25 14:11 37.19275 20.53555 6488 ft 265 kts 28°
2026-04-25 14:11 37.20918 20.54607 6372 ft 264 kts 28°
2026-04-25 14:11 37.22562 20.55660 6244 ft 265 kts 28°
2026-04-25 14:12 37.24200 20.56711 6110 ft 265 kts 28°
2026-04-25 14:12 37.25839 20.57760 5977 ft 264 kts 28°
2026-04-25 14:12 37.27472 20.58802 5857 ft 263 kts 28°
2026-04-25 14:12 37.29102 20.59843 5714 ft 263 kts 28°
2026-04-25 14:13 37.30735 20.60886 5597 ft 263 kts 28°
2026-04-25 14:13 37.32360 20.61926 5471 ft 262 kts 28°
2026-04-25 14:13 37.33985 20.62970 5343 ft 261 kts 28°
2026-04-25 14:13 37.35606 20.64013 5222 ft 262 kts 28°
2026-04-25 14:14 37.37230 20.65056 5087 ft 262 kts 28°
2026-04-25 14:14 37.38851 20.66097 4965 ft 261 kts 28°
2026-04-25 14:14 37.40470 20.67137 4848 ft 261 kts 28°
2026-04-25 14:14 37.42065 20.68162 4795 ft 261 kts 28°
2026-04-25 14:15 37.43703 20.69215 4795 ft 260 kts 28°
2026-04-25 14:15 37.44768 20.69899 4801 ft 260 kts 27°
2026-04-25 14:15 37.46903 20.71272 4797 ft 260 kts 28°
2026-04-25 14:15 37.48510 20.72307 4796 ft 259 kts 28°
2026-04-25 14:16 37.50113 20.73341 4796 ft 259 kts 28°
2026-04-25 14:16 37.51717 20.74379 4793 ft 259 kts 28°
2026-04-25 14:16 37.53306 20.75408 4793 ft 252 kts 28°
2026-04-25 14:16 37.54742 20.76513 4793 ft 233 kts 41°
2026-04-25 14:17 37.55724 20.78028 4794 ft 216 kts 61°
2026-04-25 14:17 37.56229 20.79784 4687 ft 216 kts 79°
2026-04-25 14:17 37.56256 20.81673 4553 ft 217 kts 93°
2026-04-25 14:17 37.56117 20.83577 4433 ft 216 kts 92°
2026-04-25 14:18 37.55988 20.85431 4305 ft 209 kts 92°
2026-04-25 14:18 37.55865 20.87219 4186 ft 200 kts 92°
2026-04-25 14:18 37.55748 20.88893 4077 ft 183 kts 92°
2026-04-25 14:18 37.55641 20.90427 3960 ft 168 kts 91°
2026-04-25 14:19 37.55576 20.91815 3892 ft 148 kts 81°
2026-04-25 14:19 37.55874 20.93009 3828 ft 146 kts 56°
2026-04-25 14:19 37.56563 20.93927 3796 ft 145 kts 33°
2026-04-25 14:19 37.57506 20.94384 3786 ft 147 kts
2026-04-25 14:20 37.58516 20.94279 3789 ft 148 kts 345°
2026-04-25 14:20 37.59165 20.94034 3787 ft 146 kts 346°
2026-04-25 14:20 37.60478 20.93551 3518 ft 146 kts 345°
2026-04-25 14:20 37.61443 20.93193 3266 ft 145 kts 347°
2026-04-25 14:21 37.62421 20.92904 2982 ft 144 kts 346°
2026-04-25 14:21 37.63387 20.92583 2693 ft 144 kts 346°
2026-04-25 14:21 37.64353 20.92279 2429 ft 143 kts 346°
2026-04-25 14:21 37.65319 20.91969 2098 ft 144 kts 345°
2026-04-25 14:22 37.66309 20.91710 1649 ft 147 kts 345°
2026-04-25 14:22 37.67290 20.91348 1236 ft 146 kts 340°
2026-04-25 14:22 37.68243 20.91029 998 ft 139 kts 343°
2026-04-25 14:22 37.69182 20.90726 762 ft 139 kts 341°
2026-04-25 14:23 37.70099 20.90316 686 ft 141 kts 339°
2026-04-25 14:23 37.71038 20.89961 576 ft 140 kts 342°
2026-04-25 14:23 37.71971 20.89608 537 ft 140 kts 340°
2026-04-25 14:23 37.72890 20.89248 369 ft 140 kts 342°
2026-04-25 14:24 37.73830 20.88899 167 ft 139 kts 343°
2026-04-25 14:24 37.74757 20.88548 29 ft 137 kts 346°
2026-04-25 14:24 37.75469 20.88290 22 ft 53 kts 343°
2026-04-25 14:24 37.75623 20.88231 22 ft 19 kts 341°
2026-04-25 14:25 37.75750 20.88180 25 ft 20 kts 343°
2026-04-25 14:25 37.75841 20.88118 22 ft 7 kts 289°
2026-04-25 14:25 37.75846 20.88126 22 ft 4 kts 122°
2026-04-25 14:25 37.75821 20.88151 23 ft 9 kts 149°
2026-04-25 14:26 37.75756 20.88181 25 ft 6 kts 162°
2026-04-25 14:26 37.75657 20.88223 23 ft 27 kts 161°
2026-04-25 14:26 37.75486 20.88291 21 ft 7 kts 138°
2026-04-25 14:26 37.75479 20.88341 21 ft 5 kts 101°
2026-04-25 14:27 37.75467 20.88386 22 ft 5 kts 119°
2026-04-25 14:27 37.75433 20.88419 21 ft 9 kts 158°
2026-04-25 14:27 37.75375 20.88441 20 ft 8 kts 165°
2026-04-25 14:27 37.75305 20.88466 22 ft 16 kts 164°
2026-04-25 14:28 37.75184 20.88512 21 ft 18 kts 166°
2026-04-25 14:28 37.75129 20.88591 21 ft 7 kts 57°
2026-04-25 14:28 37.75168 20.88617 21 ft 2 kts
2026-04-25 14:28 37.75196 20.88613 21 ft 0 kts 347°
2026-04-25 14:29 37.73164 20.89143 317 ft 139 kts 342°
2026-04-25 14:29 37.74061 20.88813 110 ft 139 kts 343°
2026-04-25 14:30 37.74978 20.88465 20 ft 130 kts 342°
2026-04-25 14:30 37.75590 20.88245 24 ft 0 kts 342°
2026-04-25 14:30 37.75685 20.88205 24 ft 0 kts 342°
2026-04-25 14:31 37.75170 20.88624 21 ft 0 kts 342°